BEIDOU-3 M22

Last updated on Aug. 11, 2020, 5:36 a.m. UTC

1 44794U 19078B   20222.56142241 -.00000085  00000-0  22109+2 0  9995
2 44794  55.0282  13.9132 0003644   1.7995 321.4398  1.86233055  4837
UTC
Height (km)
Latitude
Longitude
Inclination
Orbital Period
UTC large
Height (km)
Speed (km/s)
/
Latitude / Longitude
Inclination (degrees)
Orbital Period (minutes)
Azimuth
Elevation
Range (km)
Doppler Factor
iOS Compass Heading
iOS Angle

Next 30 passes for location: Hong Kong

Rise time Rise Azimuth (degrees) Set time Set Azimuth (degrees) Duration Max altitude (degrees)

No matching passes for this satellites